• In Uzbekistan
  • List of Countries
  • For 7 days
  • Water Temperature
  • Satellite Maps
  • Weather Map
  • Weather Widgets
  • user-avatar
    Login

    Hourly Weather Pichucalco

    Today, 24 February, Saturday

    Time Temperature Precipitation Wind Pressure Humidity
    00:00 +23°C° 0 mm 1 mps 750 mmHg 88%
    01:00 +23°C° 0 mm 1 mps 750 mmHg 87%
    02:00 +23°C° 0 mm 1 mps 750 mmHg 86%
    03:00 +22°C° 0 mm 1 mps 749 mmHg 85%
    04:00 +22°C° 0 mm 1 mps 749 mmHg 84%
    05:00 +22°C° 0 mm 1 mps 749 mmHg 84%
    06:00 +22°C° 0 mm 1 mps 749 mmHg 84%
    07:00 +23°C° 0 mm 1 mps 750 mmHg 80%
    08:00 +25°C° 0 mm 1 mps 750 mmHg 75%
    09:00 +27°C° 0 mm 1 mps 750 mmHg 71%
    10:00 +28°C° 0 mm 1 mps 750 mmHg 67%
    11:00 +30°C° 0 mm 1 mps 750 mmHg 63%
    12:00 +31°C° 0 mm 2 mps 749 mmHg 60%
    13:00 +31°C° 0 mm 2 mps 749 mmHg 60%
    14:00 +32°C° 0 mm 2 mps 748 mmHg 61%
    15:00 +32°C° 0 mm 2 mps 747 mmHg 62%
    16:00 +30°C° 0 mm 2 mps 747 mmHg 68%
    17:00 +29°C° 0 mm 1 mps 747 mmHg 75%
    18:00 +28°C° 0 mm 1 mps 747 mmHg 81%
    19:00 +27°C° 0 mm 1 mps 748 mmHg 83%
    20:00 +26°C° 0 mm 1 mps 748 mmHg 85%
    21:00 +25°C° 0 mm 1 mps 748 mmHg 87%
    22:00 +25°C° 0 mm 1 mps 749 mmHg 86%
    23:00 +25°C° 0 mm 2 mps 749 mmHg 84%

    Tomorrow, 25 February, Sunday

    Time Temperature Precipitation Wind Pressure Humidity
    00:00 +24°C° 0 mm 2 mps 749 mmHg 83%
    01:00 +24°C° 0 mm 2 mps 748 mmHg 84%
    02:00 +24°C° 0 mm 1 mps 748 mmHg 84%
    03:00 +23°C° 0 mm 1 mps 748 mmHg 84%
    04:00 +23°C° 0 mm 1 mps 748 mmHg 84%
    05:00 +23°C° 0 mm 1 mps 748 mmHg 85%
    06:00 +23°C° 0 mm 1 mps 748 mmHg 85%
    07:00 +24°C° 0 mm 1 mps 749 mmHg 80%
    08:00 +26°C° 0 mm 1 mps 749 mmHg 74%
    09:00 +28°C° 0 mm 1 mps 750 mmHg 69%
    10:00 +29°C° 0 mm 2 mps 749 mmHg 65%
    11:00 +31°C° 0 mm 2 mps 749 mmHg 61%
    12:00 +34°C° 0 mm 2 mps 749 mmHg 57%
    13:00 +34°C° 0 mm 2 mps 748 mmHg 58%
    14:00 +34°C° 0 mm 2 mps 747 mmHg 59%
    15:00 +34°C° 0 mm 2 mps 746 mmHg 60%
    16:00 +31°C° 0 mm 2 mps 747 mmHg 67%
    17:00 +30°C° 0 mm 2 mps 747 mmHg 73%
    18:00 +28°C° 0 mm 1 mps 747 mmHg 79%
    19:00 +27°C° 0.1 mm 1 mps 748 mmHg 81%
    20:00 +26°C° 0.1 mm 1 mps 748 mmHg 83%
    21:00 +25°C° 0.1 mm 1 mps 749 mmHg 85%
    22:00 +25°C° 0 mm 1 mps 749 mmHg 84%
    23:00 +25°C° 0 mm 1 mps 750 mmHg 84%

    Day after tomorrow, 26 February, Monday

    Time Temperature Precipitation Wind Pressure Humidity
    00:00 +24°C° 0 mm 2 mps 750 mmHg 83%
    01:00 +24°C° 0 mm 1 mps 749 mmHg 84%
    02:00 +23°C° 0 mm 1 mps 749 mmHg 84%
    03:00 +23°C° 0 mm 1 mps 749 mmHg 85%
    04:00 +23°C° 0 mm 1 mps 749 mmHg 86%
    05:00 +23°C° 0 mm 1 mps 749 mmHg 86%
    06:00 +22°C° 0 mm 1 mps 749 mmHg 87%
    07:00 +24°C° 0 mm 1 mps 750 mmHg 82%
    08:00 +26°C° 0 mm 1 mps 750 mmHg 77%
    09:00 +26°C° 0 mm 0 mps 751 mmHg 72%
    10:00 +29°C° 0 mm 1 mps 751 mmHg 69%
    11:00 +30°C° 0 mm 1 mps 750 mmHg 65%
    12:00 +32°C° 0 mm 2 mps 750 mmHg 62%
    13:00 +32°C° 0.1 mm 2 mps 749 mmHg 62%
    14:00 +32°C° 0.1 mm 2 mps 749 mmHg 63%
    15:00 +32°C° 0.1 mm 2 mps 748 mmHg 63%
    16:00 +30°C° 0.1 mm 2 mps 748 mmHg 69%
    17:00 +29°C° 0.1 mm 2 mps 748 mmHg 75%
    18:00 +28°C° 0.1 mm 1 mps 748 mmHg 81%
    19:00 +27°C° 0 mm 1 mps 749 mmHg 83%
    20:00 +26°C° 0 mm 1 mps 750 mmHg 85%
    21:00 +24°C° 0 mm 1 mps 750 mmHg 87%
    22:00 +24°C° 0 mm 1 mps 751 mmHg 87%
    23:00 +24°C° 0 mm 1 mps 751 mmHg 86%

    27 February, Tuesday

    Time Temperature Precipitation Wind Pressure Humidity
    00:00 +24°C° 0 mm 1 mps 751 mmHg 86%
    01:00 +23°C° 0 mm 1 mps 750 mmHg 85%
    02:00 +23°C° 0 mm 1 mps 750 mmHg 85%
    03:00 +23°C° 0 mm 1 mps 750 mmHg 84%
    04:00 +22°C° 0 mm 1 mps 750 mmHg 84%
    05:00 +22°C° 0 mm 1 mps 750 mmHg 84%
    06:00 +22°C° 0 mm 1 mps 750 mmHg 83%
    07:00 +24°C° 0 mm 1 mps 751 mmHg 79%
    08:00 +25°C° 0 mm 1 mps 751 mmHg 75%
    09:00 +27°C° 0 mm 1 mps 752 mmHg 71%
    10:00 +28°C° 0 mm 1 mps 751 mmHg 68%
    11:00 +29°C° 0 mm 1 mps 751 mmHg 64%
    12:00 +31°C° 0 mm 2 mps 750 mmHg 61%
    13:00 +31°C° 0 mm 2 mps 749 mmHg 61%
    14:00 +31°C° 0 mm 2 mps 749 mmHg 60%
    15:00 +31°C° 0 mm 2 mps 748 mmHg 60%
    16:00 +30°C° 0 mm 2 mps 748 mmHg 66%
    17:00 +29°C° 0 mm 2 mps 748 mmHg 73%
    18:00 +27°C° 0 mm 1 mps 748 mmHg 79%
    19:00 +26°C° 0 mm 1 mps 749 mmHg 81%
    20:00 +25°C° 0 mm 1 mps 749 mmHg 84%
    21:00 +24°C° 0 mm 1 mps 750 mmHg 86%
    22:00 +24°C° 0 mm 1 mps 750 mmHg 85%
    23:00 +23°C° 0 mm 1 mps 749 mmHg 85%

    28 February, Wednesday

    Time Temperature Precipitation Wind Pressure Humidity
    00:00 +23°C° 0 mm 1 mps 749 mmHg 84%
    01:00 +23°C° 0 mm 1 mps 749 mmHg 84%
    02:00 +23°C° 0 mm 1 mps 748 mmHg 83%
    03:00 +22°C° 0 mm 1 mps 748 mmHg 83%
    04:00 +22°C° 0 mm 1 mps 748 mmHg 83%
    05:00 +22°C° 0 mm 1 mps 748 mmHg 82%
    06:00 +22°C° 0 mm 1 mps 748 mmHg 82%
    07:00 +24°C° 0 mm 1 mps 748 mmHg 77%
    08:00 +25°C° 0 mm 1 mps 749 mmHg 72%
    09:00 +27°C° 0 mm 1 mps 749 mmHg 66%
    10:00 +29°C° 0 mm 1 mps 748 mmHg 62%
    11:00 +30°C° 0 mm 1 mps 748 mmHg 58%
    12:00 +32°C° 0 mm 2 mps 747 mmHg 54%
    13:00 +32°C° 0 mm 2 mps 747 mmHg 55%
    14:00 +34°C° 0 mm 2 mps 746 mmHg 55%
    15:00 +34°C° 0 mm 2 mps 745 mmHg 55%
    16:00 +31°C° 0 mm 2 mps 745 mmHg 62%
    17:00 +30°C° 0 mm 2 mps 745 mmHg 69%
    18:00 +28°C° 0 mm 1 mps 745 mmHg 76%
    19:00 +27°C° 0 mm 1 mps 746 mmHg 78%
    20:00 +26°C° 0 mm 1 mps 746 mmHg 80%
    21:00 +25°C° 0 mm 2 mps 747 mmHg 81%
    22:00 +25°C° 0 mm 2 mps 747 mmHg 80%
    23:00 +25°C° 0 mm 2 mps 747 mmHg 80%

    1 March, Thursday

    Time Temperature Precipitation Wind Pressure Humidity
    00:00 +25°C° 0 mm 2 mps 747 mmHg 79%
    01:00 +24°C° 0 mm 2 mps 747 mmHg 80%
    02:00 +24°C° 0 mm 1 mps 746 mmHg 80%
    03:00 +23°C° 0 mm 1 mps 746 mmHg 81%
    04:00 +23°C° 0 mm 1 mps 746 mmHg 82%
    05:00 +23°C° 0 mm 1 mps 746 mmHg 82%
    06:00 +22°C° 0 mm 1 mps 747 mmHg 83%
    07:00 +24°C° 0 mm 1 mps 747 mmHg 77%
    08:00 +26°C° 0 mm 1 mps 748 mmHg 71%
    09:00 +28°C° 0 mm 1 mps 748 mmHg 65%
    10:00 +30°C° 0 mm 1 mps 748 mmHg 61%
    11:00 +31°C° 0 mm 2 mps 748 mmHg 57%
    12:00 +34°C° 0 mm 2 mps 747 mmHg 53%
    13:00 +34°C° 0 mm 2 mps 747 mmHg 54%
    14:00 +34°C° 0 mm 2 mps 746 mmHg 54%
    15:00 +34°C° 0 mm 2 mps 746 mmHg 55%
    16:00 +32°C° 0 mm 2 mps 746 mmHg 62%
    17:00 +30°C° 0 mm 2 mps 746 mmHg 69%
    18:00 +28°C° 0 mm 2 mps 747 mmHg 76%
    19:00 +27°C° 0.1 mm 1 mps 747 mmHg 79%
    20:00 +26°C° 0.1 mm 1 mps 748 mmHg 81%
    21:00 +25°C° 0.1 mm 1 mps 749 mmHg 84%
    22:00 +25°C° 0 mm 1 mps 749 mmHg 84%
    23:00 +24°C° 0 mm 1 mps 749 mmHg 84%
    Show more